Погода в Сеуле

Южная Корея     37°34′14″N   126°58′36″E
темп.,
°C
ветер,
м/с
пор.,
м/с
влажн.,
%
обл.,
%
осадки,
мм/ч
давл.,
гПа
погр.,
м
13 мая, чт
чт1300:00+20ссв00460 0.0 101211
03:00+18в115626 0.0 101113
06:00+17всв11640 0.0 101225
09:00+22в11473 0.0 1013430
12:00+26зсз2235100 0.0 10111222
15:00+28з53320 0.0 10101514
18:00+25з33390 0.0 1010754
21:00+22зюз23520 0.0 1012171
14 мая, пт
пт1400:00+20юз116024 0.0 101218
03:00+19юз116896 0.0 101218
06:00+18вюв1171100 0.0 101318
09:00+23в125499 0.0 1013431
12:00+27ююз1141100 0.0 10121139
15:00+30ю123398 0.0 10101653
18:00+29юз2334100 0.0 10091463
21:00+25юз1146100 0.0 101133
15 мая, сб
сб1500:00+23юз1154100 0.0 101136
03:00+21ююв1162100 0.0 101031
06:00+20ююв117094 0.0 101050
09:00+24в125422 0.0 1010675
12:00+29ююв123854 0.0 10071271
15:00+30зюз5336100 0.0 10051740
18:00+25з4550100 0.1 1005525
21:00+23з2457100 0.1 1007441
16 мая, вс
вс1600:00+22зюз1260100 0.0 1006320
03:00+21ююз1269100 0.1 1005213
06:00+20вюв0179100 0.4 1005183
09:00+20всв1291100 4.1 1005208
12:00+20в1289100 0.9 1004286
15:00+20в2296100 7.2 1002236
18:00+19всв2397100 3.7 1001216
21:00+16всв3593100 13.4 1002268
17 мая, пн
пн1700:00+14всв3791100 6.7 1002317
03:00+14св3894100 12.1 1002399
06:00+14св3789100 1.0 1002418
09:00+16всв377664 1.1 1004484
12:00+21всв4657100 0.0 1005985
15:00+21вюв3458100 0.0 10061086
18:00+21ююв1263100 0.0 1007294
21:00+19вюв1269100 0.0 1009239